DW3897 Weather Reports


time (UTC)temp
F
wind
direction
speed
knots
gust
knots
rain 1hr
in
rain 24hr
in
rain mn
in
humidity
%
barometer
mb
20260504081513 45 290 0.0 0.0 0.00 0.00 0.00 72 1009.5
20260504050019 46 290 0.0 0.0 0.00 0.00 0.00 66 1010.2
20260504044518 45 289 0.0 0.0 0.00 0.00 0.00 66 1010.2
20260504043016 45 290 0.0 0.0 0.00 0.00 0.00 66 1010.8
20260504041512 45 290 0.0 0.0 0.00 0.00 0.00 66 1010.9
20260504040029 44 290 0.0 0.0 0.00 0.00 0.00 66 1010.7
20260504034511 44 289 0.0 0.0 0.00 0.00 0.00 66 1010.6
20260504033013 44 290 0.0 0.0 0.00 0.00 0.00 65 1010.3
20260504031512 44 289 0.0 0.0 0.00 0.00 0.00 63 1010.2
20260504030010 45 290 0.0 0.0 0.00 0.00 0.00 59 1010.2
20260504024509 45 289 0.0 0.0 0.00 0.00 0.00 58 1010.1
20260504023008 46 290 0.0 0.0 0.00 0.00 0.00 57 1010.1
20260504021508 46 290 0.0 0.0 0.00 0.00 0.00 56 1010.1
20260504020007 47 290 0.0 0.0 0.00 0.00 0.00 52 1010.2
20260504014636 48 290 0.0 0.0 0.00 0.00 0.00 51 1010.3
20260504013046 49 290 0.0 0.0 0.00 0.00 0.00 49 1010.3
20260504011546 50 290 0.0 0.0 0.00 0.00 0.00 45 1010.1
20260504010030 51 290 0.0 0.0 0.00 0.00 0.00 43 1010.0
20260504004540 52 290 0.0 0.9 0.00 0.00 0.00 41 1009.7
20260504003011 52 290 0.0 0.0 0.00 0.00 0.00 41 1009.7
20260504001509 53 290 0.0 0.9 0.00 0.00 0.00 39 1009.4
20260504000110 53 290 0.0 2.6 0.00 0.00 0.00 37 1009.2
20260503234551 54 287 0.0 1.7 0.00 0.00 0.00 35 1008.9
20260503233033 55 288 1.7 7.0 0.00 0.00 0.00 33 1008.7
20260503231532 55 281 0.9 6.1 0.00 0.00 0.00 33 1008.6
20260503230015 56 339 0.0 3.5 0.00 0.00 0.00 32 1008.4
20260503224513 57 277 1.7 7.8 0.00 0.00 0.00 31 1008.2
20260503223058 57 286 0.9 4.3 0.00 0.00 0.00 29 1008.1
20260503221558 57 260 2.6 7.0 0.00 0.00 0.00 28 1008.0
20260503220036 57 254 0.0 7.0 0.00 0.00 0.00 29 1008.0
20260503214535 56 292 2.6 7.8 0.00 0.00 0.00 29 1007.9
20260503213019 56 265 2.6 9.6 0.00 0.00 0.00 28 1008.0
20260503211516 57 286 0.9 5.2 0.00 0.00 0.00 31 1008.0
20260503210055 56 259 2.6 7.0 0.00 0.00 0.00 31 1008.0
20260503204553 55 300 0.0 7.8 0.00 0.00 0.00 33 1008.4
20260503203035 55 292 2.6 9.6 0.00 0.00 0.00 33 1008.5
20260503201534 54 284 0.9 8.7 0.00 0.00 0.00 34 1008.6
20260503200018 55 289 3.5 10.4 0.00 0.00 0.00 34 1008.7
20260503194512 54 317 2.6 7.8 0.00 0.00 0.00 35 1008.9
20260503193059 52 297 1.7 7.8 0.00 0.00 0.00 38 1009.2
20260503191554 52 293 2.6 7.8 0.00 0.00 0.00 38 1009.3
20260503190032 52 308 0.9 7.0 0.00 0.00 0.00 39 1009.4
20260503184530 51 278 0.0 7.0 0.00 0.00 0.00 40 1009.6
20260503183013 52 270 2.6 9.6 0.00 0.00 0.00 38 1009.8
20260503181510 51 291 0.0 4.3 0.00 0.00 0.00 41 1009.7
20260503180051 51 284 1.7 5.2 0.00 0.00 0.00 39 1009.8
20260503174550 50 287 1.7 7.0 0.00 0.00 0.00 41 1010.3
20260503173033 50 275 2.6 6.1 0.00 0.00 0.00 40 1010.3
20260503171530 50 304 0.9 7.8 0.00 0.00 0.00 40 1010.1
20260503150104 48 259 2.6 10.4 0.00 0.00 0.00 42 1010.3